Погода в Вюрцбурге

Германия     49°47′42″N   9°56′08″E
темп.,
°C
ветер,
м/с
пор.,
м/с
влажн.,
%
обл.,
%
осадки,
мм/ч
давл.,
гПа
погр.,
м
21 января, пт
пт2101:00−1зсз5119292 0.1 1030512
04:00−1сз388689 0.3 1031258
07:00−2з489580 0.4 1032226
10:000з5985100 0.0 1032445
13:00+2зсз797691 0.0 1032871
16:00+1з6118894 0.0 1031651
19:000з5119099 0.0 1032399
22:00+1зюз61198100 0.3 1032536
22 января, сб
сб2201:00+1з71397100 0.4 1030637
04:00+1з71397100 0.1 1030677
07:00+2зсз61298100 0.4 1030608
10:00+2з51098100 0.3 1032479
13:00+3з4898100 0.4 1033332
16:00+2з3798100 0.1 1033242
19:00+2з3698100 0.4 1034205
22:00+2з249798 0.0 1034117
23 января, вс
вс2301:00+3з2293100 0.0 103422
04:00+3з1195100 0.0 103414
07:00+3зсз1197100 0.0 103410
10:00+4зсз1194100 0.0 103584
13:00+5ссз11827 0.0 1035251
16:00+5в008081 0.0 103510
19:00+4всв0085100 0.0 103510
22:00+4в1187100 0.0 103510
24 января, пн
пн2401:00+4всв1188100 0.0 103510
04:00+3св119082 0.0 103410
07:00+2св119320 0.0 103410
10:00+4св128947 0.0 1035102
13:00+7всв23745 0.0 1034439
16:00+6всв22785 0.0 103317
19:00+3вюв11865 0.0 103410
22:00+2ююв11895 0.0 103510
25 января, вт
вт2501:00+1ююз11915 0.0 103610
04:00+1юз11921 0.0 103510
07:000ююз11935 0.0 103610
10:00+2юз11875 0.0 1036123
13:00+5сз117830 0.0 1036452
16:00+4с11845 0.0 103510
19:00+2ююз2289100 0.0 103613
22:00+3зюз2290100 0.0 103639